Ozark, AL

7:11 PM CDT on April 19, 2018 (GMT -0500)
Cairns Army Air Field

Weather History for KOZR - July, 2014

Change the Weather History Date:

Sunday, July 13, 2014

  Actual Average Record
Temperature  
Mean Temperature 80 °F -  
Max Temperature 90 °F 88 °F 97 °F (2010)
Min Temperature 69 °F 69 °F 68 °F (2001)
Cooling Degree Days 14    
Growing Degree Days 30 (Base 50)    
Moisture  
Dew Point 72 °F    
Average Humidity 89    
Maximum Humidity 100    
Minimum Humidity 52    
Precipitation  
Precipitation 0.00 in - - ()
Sea Level Pressure  
Sea Level Pressure 30.12 in    
Wind  
Wind Speed 3 mph (ESE)    
Max Wind Speed 9 mph    
Max Gust Speed -    
Visibility 6 miles    
Events Fog    
Averages and records for this station are not official NWS values.
T = Trace of Precipitation, MM = Missing Value Source: NWS Daily Summary

Daily Weather History Graph

Daily Weather History Graph

Search for Another Location

Airport or City:

Astronomy

Jul. 13, 2014 Rise Set
Actual Time 5:48 AM CDT 7:48 PM CDT
Civil Twilight 5:20 AM CDT 8:16 PM CDT
Nautical Twilight 4:47 AM CDT 8:49 PM CDT
Astronomical Twilight 4:11 AM CDT 9:25 PM CDT
Moon 8:47 PM CDT (7/13) 7:09 AM CDT (7/13)
Length of Visible Light 14h 55m
Length of Day
14h 00m
Full, 98% of the Moon is Illuminated
Jul 13
Full
Jul 18
Last Quarter
Jul 26
New
Aug 3
First Quarter
Aug 10
Full

Hourly Weather History & Observations

Time (CDT) Temp. Heat Index Dew Point Humidity Pressure Visibility Wind Dir Wind Speed Gust Speed Precip Events Conditions
12:58 AM 72.9 °F - 72.0 °F 97% 30.10 in 10.0 mi SE 1.2 mph - N/A   Clear
1:58 AM 72.3 °F - 71.6 °F 98% 30.09 in 10.0 mi NE 3.5 mph - N/A   Clear
2:23 AM 71.6 °F - 69.8 °F 94% 30.09 in 2.5 mi ENE 2.3 mph - N/A   Clear
2:28 AM 71.6 °F - 69.8 °F 94% 30.09 in 1.8 mi ENE 1.2 mph - N/A   Clear
2:33 AM 71.6 °F - 71.6 °F 100% 30.09 in 4.0 mi East 1.2 mph - N/A   Clear
2:58 AM 71.4 °F - 70.9 °F 98% 30.09 in 10.0 mi NNE 2.3 mph - N/A   Clear
3:33 AM 71.6 °F - 71.6 °F 100% 30.09 in 10.0 mi East 2.3 mph - N/A   Mostly Cloudy
3:58 AM 71.6 °F - 70.7 °F 97% 30.10 in 10.0 mi ENE 2.3 mph - N/A   Overcast
4:53 AM 71.6 °F - 71.6 °F 100% 30.11 in 10.0 mi NE 3.5 mph - N/A   Scattered Clouds
4:58 AM 71.4 °F - 70.9 °F 98% 30.11 in 10.0 mi ENE 2.3 mph - N/A   Scattered Clouds
5:18 AM 71.6 °F - 69.8 °F 94% 30.11 in 2.0 mi NE 2.3 mph - N/A   Clear
5:23 AM 71.6 °F - 69.8 °F 94% 30.11 in 1.8 mi NE 1.2 mph - N/A   Clear
5:28 AM 71.6 °F - 69.8 °F 94% 30.11 in 0.8 mi NE 2.3 mph - N/A   Clear
5:33 AM 71.6 °F - 69.8 °F 94% 30.11 in 0.2 mi ENE 2.3 mph - N/A Fog Fog
5:38 AM 69.8 °F - 69.8 °F 100% 30.11 in 0.2 mi ENE 2.3 mph - N/A Fog Fog
5:41 AM 69.8 °F - 69.8 °F 100% 30.11 in 0.2 mi ENE 3.5 mph - N/A Fog Fog
5:46 AM 69.8 °F - 69.8 °F 100% 30.11 in 0.5 mi NE 3.5 mph - N/A Fog Fog
5:51 AM 69.8 °F - 69.8 °F 100% 30.11 in 0.8 mi ENE 3.5 mph - N/A   Mist
5:56 AM 71.6 °F - 69.8 °F 94% 30.11 in 1.2 mi East 2.3 mph - N/A   Mostly Cloudy
5:58 AM 71.6 °F - 69.8 °F 94% 30.11 in 1.2 mi East 2.3 mph - N/A   Mostly Cloudy
6:03 AM 71.6 °F - 69.8 °F 94% 30.11 in 0.5 mi East 3.5 mph - N/A Fog Fog
6:08 AM 71.6 °F - 71.6 °F 100% 30.11 in 0.2 mi ESE 3.5 mph - N/A Fog Fog
6:13 AM 71.6 °F - 71.6 °F 100% 30.12 in 0.2 mi ESE 3.5 mph - N/A Fog Fog
6:28 AM 71.6 °F - 71.6 °F 100% 30.12 in 0.5 mi ESE 3.5 mph - N/A Fog Fog
6:33 AM 71.6 °F - 71.6 °F 100% 30.13 in 0.5 mi ESE 4.6 mph - N/A Fog Fog
6:43 AM 71.6 °F - 71.6 °F 100% 30.13 in 0.8 mi SE 3.5 mph - N/A   Mist
6:48 AM 71.6 °F - 71.6 °F 100% 30.13 in 0.8 mi SE 4.6 mph - N/A   Mist
6:53 AM 73.4 °F - 71.6 °F 94% 30.13 in 0.5 mi SE 5.8 mph - N/A Fog Fog
6:58 AM 72.7 °F - 72.1 °F 98% 30.13 in 0.5 mi Variable 4.6 mph - N/A Fog Fog
7:13 AM 73.4 °F - 73.4 °F 100% 30.14 in 0.8 mi ESE 5.8 mph - N/A   Mist
7:18 AM 73.4 °F - 73.4 °F 100% 30.13 in 1.2 mi ESE 5.8 mph - N/A   Overcast
7:23 AM 73.4 °F - 73.4 °F 100% 30.14 in 1.8 mi ESE 6.9 mph - N/A   Overcast
7:28 AM 73.4 °F - 73.4 °F 100% 30.14 in 2.5 mi ESE 4.6 mph - N/A   Overcast
7:33 AM 73.4 °F - 73.4 °F 100% 30.14 in 4.0 mi ESE 5.8 mph - N/A   Overcast
7:48 AM 73.4 °F - 73.4 °F 100% 30.14 in 7.0 mi SSE 5.8 mph - N/A   Overcast
7:58 AM 74.3 °F - 73.8 °F 98% 30.15 in 8.0 mi SE 5.8 mph - N/A   Overcast
8:33 AM 75.2 °F - 75.2 °F 100% 30.16 in 10.0 mi East 4.6 mph - N/A   Overcast
8:48 AM 75.2 °F - 73.4 °F 94% 30.16 in 10.0 mi ESE 3.5 mph - N/A   Overcast
8:58 AM 76.1 °F - 73.9 °F 93% 30.16 in 10.0 mi SE 5.8 mph - N/A   Overcast
9:03 AM 77.0 °F - 73.4 °F 89% 30.16 in 10.0 mi SE 4.6 mph - N/A   Overcast
9:18 AM 77.0 °F - 73.4 °F 89% 30.17 in 10.0 mi ESE 2.3 mph - N/A   Overcast
9:48 AM 78.8 °F - 73.4 °F 83% 30.16 in 10.0 mi Variable 1.2 mph - N/A   Overcast
9:58 AM 78.6 °F - 73.4 °F 84% 30.16 in 10.0 mi Variable 1.2 mph - N/A   Mostly Cloudy
10:03 AM 78.8 °F - 73.4 °F 83% 30.16 in 10.0 mi SE 2.3 mph - N/A   Mostly Cloudy
10:08 AM 78.8 °F - 73.4 °F 83% 30.16 in 10.0 mi Variable 2.3 mph - N/A   Scattered Clouds
10:58 AM 82.0 °F 87.2 °F 72.5 °F 73% 30.16 in 9.0 mi Calm Calm - N/A   Scattered Clouds
11:03 AM 82.4 °F 88.2 °F 73.4 °F 74% 30.16 in 10.0 mi Calm Calm - N/A   Mostly Cloudy
11:08 AM 80.6 °F 85.4 °F 73.4 °F 79% 30.16 in 10.0 mi West 3.5 mph - N/A   Scattered Clouds
11:58 AM 84.2 °F 89.6 °F 71.8 °F 66% 30.15 in 10.0 mi East 2.3 mph - N/A   Partly Cloudy
12:58 PM 86.2 °F 91.8 °F 71.2 °F 61% 30.12 in 10.0 mi Variable 1.2 mph - N/A   Scattered Clouds
1:58 PM 87.4 °F 93.1 °F 70.9 °F 58% 30.10 in 10.0 mi SSW 5.8 mph - N/A   Scattered Clouds
2:58 PM 88.7 °F 94.3 °F 70.9 °F 55% 30.06 in 10.0 mi Variable 1.2 mph - N/A   Clear
3:58 PM 88.9 °F 94.2 °F 70.2 °F 54% 30.04 in 10.0 mi SW 3.5 mph - N/A   Scattered Clouds
4:58 PM 90.5 °F 96.5 °F 70.5 °F 52% 30.04 in 10.0 mi Variable 3.5 mph - N/A   Partly Cloudy
5:58 PM 90.1 °F 96.3 °F 70.9 °F 53% 30.04 in 10.0 mi WSW 2.3 mph - N/A   Clear
6:58 PM 83.8 °F 90.1 °F 73.2 °F 70% 30.04 in 10.0 mi South 9.2 mph - N/A   Clear
7:58 PM 81.3 °F 86.5 °F 73.6 °F 77% 30.06 in 10.0 mi South 5.8 mph - N/A   Partly Cloudy
8:58 PM 79.9 °F - 73.9 °F 82% 30.07 in 10.0 mi SSW 5.8 mph - N/A   Clear
9:58 PM 78.8 °F - 73.9 °F 85% 30.07 in 10.0 mi SW 5.8 mph - N/A   Clear
10:58 PM 77.9 °F - 74.1 °F 88% 30.08 in 10.0 mi SW 5.8 mph - N/A   Clear
11:58 PM 76.6 °F - 74.1 °F 92% 30.09 in 10.0 mi WSW 5.8 mph - N/A   Clear